Year,Month,Day,Hour,Minute,Value (Times are PST for windgust in km/hr)
2017,04,07,00,00,9.60
2017,04,07,00,01,11.30
2017,04,07,00,02,12.90
2017,04,07,00,03,16.10
2017,04,07,00,04,11.30
2017,04,07,00,05,12.90
2017,04,07,00,06,9.60
2017,04,07,00,07,8.10
2017,04,07,00,08,14.50
2017,04,07,00,09,11.30
2017,04,07,00,10,17.70
2017,04,07,00,11,9.60
2017,04,07,00,12,8.10
2017,04,07,00,13,6.40
2017,04,07,00,14,4.80
2017,04,07,00,15,3.20
2017,04,07,00,16,4.80
2017,04,07,00,17,6.40
2017,04,07,00,18,9.60
2017,04,07,00,19,9.60
2017,04,07,00,20,11.30
2017,04,07,00,21,11.30
2017,04,07,00,22,8.10
2017,04,07,00,23,8.10
2017,04,07,00,24,12.90
2017,04,07,00,25,4.80
2017,04,07,00,26,8.10
2017,04,07,00,27,8.10
2017,04,07,00,28,6.40
2017,04,07,00,29,6.40
2017,04,07,00,30,6.40
2017,04,07,00,31,4.80
2017,04,07,00,32,1.60
2017,04,07,00,33,3.20
2017,04,07,00,34,4.80
2017,04,07,00,35,6.40
2017,04,07,00,36,9.60
2017,04,07,00,37,12.90
2017,04,07,00,38,12.90
2017,04,07,00,39,19.30
2017,04,07,00,40,9.60
2017,04,07,00,41,9.60
2017,04,07,00,42,11.30
2017,04,07,00,43,9.60
2017,04,07,00,44,9.60
2017,04,07,00,45,11.30
2017,04,07,00,46,11.30
2017,04,07,00,47,16.10
2017,04,07,00,48,11.30
2017,04,07,00,49,12.90
2017,04,07,00,50,12.90
2017,04,07,00,51,16.10
2017,04,07,00,52,9.60
2017,04,07,00,53,16.10
2017,04,07,00,54,19.30
2017,04,07,00,55,16.10
2017,04,07,00,56,9.60
2017,04,07,00,57,8.10
2017,04,07,00,58,9.60
2017,04,07,00,59,12.90
2017,04,07,01,00,9.60
2017,04,07,01,01,8.10
2017,04,07,01,02,6.40
2017,04,07,01,03,6.40
2017,04,07,01,04,9.60
2017,04,07,01,05,6.40
2017,04,07,01,06,3.20
2017,04,07,01,07,8.10
2017,04,07,01,08,17.70
2017,04,07,01,09,11.30
2017,04,07,01,10,8.10
2017,04,07,01,11,6.40
2017,04,07,01,12,8.10
2017,04,07,01,13,12.90
2017,04,07,01,14,8.10
2017,04,07,01,15,8.10
2017,04,07,01,16,6.40
2017,04,07,01,17,9.60
2017,04,07,01,18,12.90
2017,04,07,01,19,12.90
2017,04,07,01,20,9.60
2017,04,07,01,21,14.50
2017,04,07,01,22,19.30
2017,04,07,01,23,11.30
2017,04,07,01,24,11.30
2017,04,07,01,25,11.30
2017,04,07,01,26,8.10
2017,04,07,01,27,9.60
2017,04,07,01,28,8.10
2017,04,07,01,29,8.10
2017,04,07,01,30,8.10
2017,04,07,01,31,8.10
2017,04,07,01,32,9.60
2017,04,07,01,33,9.60
2017,04,07,01,34,12.90
2017,04,07,01,35,8.10
2017,04,07,01,36,11.30
2017,04,07,01,37,9.60
2017,04,07,01,38,12.90
2017,04,07,01,39,12.90
2017,04,07,01,40,12.90
2017,04,07,01,41,12.90
2017,04,07,01,42,6.40
2017,04,07,01,43,6.40
2017,04,07,01,44,3.20
2017,04,07,01,45,4.80
2017,04,07,01,46,6.40
2017,04,07,01,47,9.60
2017,04,07,01,48,8.10
2017,04,07,01,49,9.60
2017,04,07,01,50,8.10
2017,04,07,01,51,9.60
2017,04,07,01,52,8.10
2017,04,07,01,53,8.10
2017,04,07,01,54,4.80
2017,04,07,01,55,8.10
2017,04,07,01,56,9.60
2017,04,07,01,57,8.10
2017,04,07,01,58,16.10
2017,04,07,01,59,9.60
2017,04,07,02,00,8.10
2017,04,07,02,01,11.30
2017,04,07,02,02,16.10
2017,04,07,02,03,8.10
2017,04,07,02,04,11.30
2017,04,07,02,05,8.10
2017,04,07,02,06,6.40
2017,04,07,02,07,12.90
2017,04,07,02,08,11.30
2017,04,07,02,09,17.70
2017,04,07,02,10,17.70
2017,04,07,02,11,9.60
2017,04,07,02,12,9.60
2017,04,07,02,13,8.10
2017,04,07,02,14,11.30
2017,04,07,02,15,12.90
2017,04,07,02,16,8.10
2017,04,07,02,17,9.60
2017,04,07,02,18,14.50
2017,04,07,02,19,11.30
2017,04,07,02,20,16.10
2017,04,07,02,21,11.30
2017,04,07,02,22,12.90
2017,04,07,02,23,4.80
2017,04,07,02,24,12.90
2017,04,07,02,25,19.30
2017,04,07,02,26,12.90
2017,04,07,02,27,9.60
2017,04,07,02,28,11.30
2017,04,07,02,29,12.90
2017,04,07,02,30,9.60
2017,04,07,02,31,12.90
2017,04,07,02,32,16.10
2017,04,07,02,33,11.30
2017,04,07,02,34,12.90
2017,04,07,02,35,8.10
2017,04,07,02,36,12.90
2017,04,07,02,37,19.30
2017,04,07,02,38,11.30
2017,04,07,02,39,17.70
2017,04,07,02,40,11.30
2017,04,07,02,41,8.10
2017,04,07,02,42,19.30
2017,04,07,02,43,12.90
2017,04,07,02,44,12.90
2017,04,07,02,45,19.30
2017,04,07,02,46,12.90
2017,04,07,02,47,17.70
2017,04,07,02,48,16.10
2017,04,07,02,49,9.60
2017,04,07,02,50,11.30
2017,04,07,02,51,12.90
2017,04,07,02,52,19.30
2017,04,07,02,53,19.30
2017,04,07,02,54,11.30
2017,04,07,02,55,19.30
2017,04,07,02,56,17.70
2017,04,07,02,57,11.30
2017,04,07,02,58,19.30
2017,04,07,02,59,12.90
2017,04,07,03,00,17.70
2017,04,07,03,01,12.90
2017,04,07,03,02,12.90
2017,04,07,03,03,19.30
2017,04,07,03,04,11.30
2017,04,07,03,05,11.30
2017,04,07,03,06,11.30
2017,04,07,03,07,17.70
2017,04,07,03,08,16.10
2017,04,07,03,09,11.30
2017,04,07,03,10,16.10
2017,04,07,03,11,11.30
2017,04,07,03,12,17.70
2017,04,07,03,13,11.30
2017,04,07,03,14,12.90
2017,04,07,03,15,19.30
2017,04,07,03,16,12.90
2017,04,07,03,17,11.30
2017,04,07,03,18,9.60
2017,04,07,03,19,8.10
2017,04,07,03,20,9.60
2017,04,07,03,21,17.70
2017,04,07,03,22,16.10
2017,04,07,03,23,16.10
2017,04,07,03,24,17.70
2017,04,07,03,25,12.90
2017,04,07,03,26,19.30
2017,04,07,03,27,11.30
2017,04,07,03,28,11.30
2017,04,07,03,29,17.70
2017,04,07,03,30,12.90
2017,04,07,03,31,9.60
2017,04,07,03,32,12.90
2017,04,07,03,33,16.10
2017,04,07,03,34,11.30
2017,04,07,03,35,9.60
2017,04,07,03,36,16.10
2017,04,07,03,37,11.30
2017,04,07,03,38,12.90
2017,04,07,03,39,16.10
2017,04,07,03,40,9.60
2017,04,07,03,41,9.60
2017,04,07,03,42,11.30
2017,04,07,03,43,11.30
2017,04,07,03,44,12.90
2017,04,07,03,45,16.10
2017,04,07,03,46,11.30
2017,04,07,03,47,12.90
2017,04,07,03,48,12.90
2017,04,07,03,49,9.60
2017,04,07,03,50,9.60
2017,04,07,03,51,11.30
2017,04,07,03,52,11.30
2017,04,07,03,53,11.30
2017,04,07,03,54,16.10
2017,04,07,03,55,14.50
2017,04,07,03,56,12.90
2017,04,07,03,57,9.60
2017,04,07,03,58,11.30
2017,04,07,03,59,11.30
2017,04,07,04,00,8.10
2017,04,07,04,01,9.60
2017,04,07,04,02,8.10
2017,04,07,04,03,8.10
2017,04,07,04,04,6.40
2017,04,07,04,05,11.30
2017,04,07,04,06,6.40
2017,04,07,04,07,11.30
2017,04,07,04,08,9.60
2017,04,07,04,09,16.10
2017,04,07,04,10,9.60
2017,04,07,04,11,11.30
2017,04,07,04,12,12.90
2017,04,07,04,13,9.60
2017,04,07,04,14,12.90
2017,04,07,04,15,12.90
2017,04,07,04,16,16.10
2017,04,07,04,17,6.40
2017,04,07,04,18,11.30
2017,04,07,04,19,11.30
2017,04,07,04,20,12.90
2017,04,07,04,21,16.10
2017,04,07,04,22,9.60
2017,04,07,04,23,12.90
2017,04,07,04,24,16.10
2017,04,07,04,25,12.90
2017,04,07,04,26,9.60
2017,04,07,04,27,17.70
2017,04,07,04,28,16.10
2017,04,07,04,29,11.30
2017,04,07,04,30,16.10
2017,04,07,04,31,16.10
2017,04,07,04,32,20.90
2017,04,07,04,33,16.10
2017,04,07,04,34,16.10
2017,04,07,04,35,12.90
2017,04,07,04,36,12.90
2017,04,07,04,37,17.70
2017,04,07,04,38,22.50
2017,04,07,04,39,20.90
2017,04,07,04,40,19.30
2017,04,07,04,41,19.30
2017,04,07,04,42,19.30
2017,04,07,04,43,16.10
2017,04,07,04,44,11.30
2017,04,07,04,45,19.30
2017,04,07,04,46,20.90
2017,04,07,04,47,16.10
2017,04,07,04,48,22.50
2017,04,07,04,49,9.60
2017,04,07,04,50,11.30
2017,04,07,04,51,25.70
2017,04,07,04,52,19.30
2017,04,07,04,53,20.90
2017,04,07,04,54,16.10
2017,04,07,04,55,22.50
2017,04,07,04,56,12.90
2017,04,07,04,57,16.10
2017,04,07,04,58,14.50
2017,04,07,04,59,16.10
2017,04,07,05,00,11.30
2017,04,07,05,01,16.10
2017,04,07,05,02,16.10
2017,04,07,05,03,22.50
2017,04,07,05,04,19.30
2017,04,07,05,05,16.10
2017,04,07,05,06,17.70
2017,04,07,05,07,17.70
2017,04,07,05,08,20.90
2017,04,07,05,09,19.30
2017,04,07,05,10,22.50
2017,04,07,05,11,19.30
2017,04,07,05,12,17.70
2017,04,07,05,13,24.20
2017,04,07,05,14,20.90
2017,04,07,05,15,16.10
2017,04,07,05,16,12.90
2017,04,07,05,17,17.70
2017,04,07,05,18,19.30
2017,04,07,05,19,24.20
2017,04,07,05,20,29.00
2017,04,07,05,21,24.20
2017,04,07,05,22,17.70
2017,04,07,05,23,19.30
2017,04,07,05,24,22.50
2017,04,07,05,25,25.70
2017,04,07,05,26,16.10
2017,04,07,05,27,22.50
2017,04,07,05,28,22.50
2017,04,07,05,29,17.70
2017,04,07,05,30,12.90
2017,04,07,05,31,24.20
2017,04,07,05,32,19.30
2017,04,07,05,33,19.30
2017,04,07,05,34,19.30
2017,04,07,05,35,19.30
2017,04,07,05,36,17.70
2017,04,07,05,37,19.30
2017,04,07,05,38,27.40
2017,04,07,05,39,22.50
2017,04,07,05,40,27.40
2017,04,07,05,41,29.00
2017,04,07,05,42,17.70
2017,04,07,05,43,20.90
2017,04,07,05,44,30.60
2017,04,07,05,45,30.60
2017,04,07,05,46,33.80
2017,04,07,05,47,33.80
2017,04,07,05,48,30.60
2017,04,07,05,49,22.50
2017,04,07,05,50,22.50
2017,04,07,05,51,25.70
2017,04,07,05,52,30.60
2017,04,07,05,53,38.60
2017,04,07,05,54,38.60
2017,04,07,05,55,27.40
2017,04,07,05,56,33.80
2017,04,07,05,57,40.20
2017,04,07,05,58,45.10
2017,04,07,05,59,32.20
2017,04,07,06,00,24.20
2017,04,07,06,01,32.20
2017,04,07,06,02,35.40
2017,04,07,06,03,32.20
2017,04,07,06,04,24.20
2017,04,07,06,05,32.20
2017,04,07,06,06,35.40
2017,04,07,06,07,27.40
2017,04,07,06,08,22.50
2017,04,07,06,09,25.70
2017,04,07,06,10,22.50
2017,04,07,06,11,22.50
2017,04,07,06,12,29.00
2017,04,07,06,13,33.80
2017,04,07,06,14,24.20
2017,04,07,06,15,25.70
2017,04,07,06,16,35.40
2017,04,07,06,17,24.20
2017,04,07,06,18,25.70
2017,04,07,06,19,19.30
2017,04,07,06,20,20.90
2017,04,07,06,21,24.20
2017,04,07,06,22,33.80
2017,04,07,06,23,30.60
2017,04,07,06,24,24.20
2017,04,07,06,25,24.20
2017,04,07,06,26,19.30
2017,04,07,06,27,19.30
2017,04,07,06,28,22.50
2017,04,07,06,29,29.00
2017,04,07,06,30,25.70
2017,04,07,06,31,24.20
2017,04,07,06,32,16.10
2017,04,07,06,33,32.20
2017,04,07,06,34,32.20
2017,04,07,06,35,19.30
2017,04,07,06,36,35.40
2017,04,07,06,37,30.60
2017,04,07,06,38,22.50
2017,04,07,06,39,27.40
2017,04,07,06,40,25.70
2017,04,07,06,41,24.20
2017,04,07,06,42,19.30
2017,04,07,06,43,29.00
2017,04,07,06,44,17.70
2017,04,07,06,45,37.00
2017,04,07,06,46,27.40
2017,04,07,06,47,32.20
2017,04,07,06,48,30.60
2017,04,07,06,49,32.20
2017,04,07,06,50,38.60
2017,04,07,06,51,30.60
2017,04,07,06,52,25.70
2017,04,07,06,53,27.40
2017,04,07,06,54,22.50
2017,04,07,06,55,22.50
2017,04,07,06,56,22.50
2017,04,07,06,57,22.50
2017,04,07,06,58,24.20
2017,04,07,06,59,16.10
2017,04,07,07,00,12.90
2017,04,07,07,01,25.70
2017,04,07,07,02,19.30
2017,04,07,07,03,25.70
2017,04,07,07,04,24.20
2017,04,07,07,05,29.00
2017,04,07,07,06,25.70
2017,04,07,07,07,29.00
2017,04,07,07,08,24.20
2017,04,07,07,09,27.40
2017,04,07,07,10,30.60
2017,04,07,07,11,22.50
2017,04,07,07,12,17.70
2017,04,07,07,13,25.70
2017,04,07,07,14,17.70
2017,04,07,07,15,14.50
2017,04,07,07,16,16.10
2017,04,07,07,17,24.20
2017,04,07,07,18,16.10
2017,04,07,07,19,19.30
2017,04,07,07,20,27.40
2017,04,07,07,21,27.40
2017,04,07,07,22,27.40
2017,04,07,07,23,20.90
2017,04,07,07,24,12.90
2017,04,07,07,25,17.70
2017,04,07,07,26,17.70
2017,04,07,07,27,12.90
2017,04,07,07,28,24.20
2017,04,07,07,29,22.50
2017,04,07,07,30,20.90
2017,04,07,07,31,12.90
2017,04,07,07,32,20.90
2017,04,07,07,33,22.50
2017,04,07,07,34,17.70
2017,04,07,07,35,16.10
2017,04,07,07,36,16.10
2017,04,07,07,37,17.70
2017,04,07,07,38,17.70
2017,04,07,07,39,17.70
2017,04,07,07,40,22.50
2017,04,07,07,41,14.50
2017,04,07,07,42,20.90
2017,04,07,07,43,11.30
2017,04,07,07,44,16.10
2017,04,07,07,45,16.10
2017,04,07,07,46,9.60
2017,04,07,07,47,8.10
2017,04,07,07,48,12.90
2017,04,07,07,49,12.90
2017,04,07,07,50,11.30
2017,04,07,07,51,12.90
2017,04,07,07,52,11.30
2017,04,07,07,53,17.70
2017,04,07,07,54,11.30
2017,04,07,07,55,9.60
2017,04,07,07,56,12.90
2017,04,07,07,57,11.30
2017,04,07,07,58,22.50
2017,04,07,07,59,16.10
2017,04,07,08,00,17.70
2017,04,07,08,01,22.50
2017,04,07,08,02,9.60
2017,04,07,08,03,6.40
2017,04,07,08,04,8.10
2017,04,07,08,05,19.30
2017,04,07,08,06,16.10
2017,04,07,08,07,17.70
2017,04,07,08,08,17.70
2017,04,07,08,09,11.30
2017,04,07,08,10,11.30
2017,04,07,08,11,12.90
2017,04,07,08,12,19.30
2017,04,07,08,13,17.70
2017,04,07,08,14,16.10
2017,04,07,08,15,22.50
2017,04,07,08,16,22.50
2017,04,07,08,17,16.10
2017,04,07,08,18,19.30
2017,04,07,08,19,19.30
2017,04,07,08,20,25.70
2017,04,07,08,21,16.10
2017,04,07,08,22,22.50
2017,04,07,08,23,19.30
2017,04,07,08,24,22.50
2017,04,07,08,25,29.00
2017,04,07,08,26,17.70
2017,04,07,08,27,11.30
2017,04,07,08,28,16.10
2017,04,07,08,29,22.50
2017,04,07,08,30,17.70
2017,04,07,08,31,27.40
2017,04,07,08,32,25.70
2017,04,07,08,33,19.30
2017,04,07,08,34,14.50
2017,04,07,08,35,20.90
2017,04,07,08,36,20.90
2017,04,07,08,37,16.10
2017,04,07,08,38,17.70
2017,04,07,08,39,20.90
2017,04,07,08,40,27.40
2017,04,07,08,41,29.00
2017,04,07,08,42,22.50
2017,04,07,08,43,22.50
2017,04,07,08,44,24.20
2017,04,07,08,45,19.30
2017,04,07,08,46,17.70
2017,04,07,08,47,30.60
2017,04,07,08,48,29.00
2017,04,07,08,49,29.00
2017,04,07,08,50,19.30
2017,04,07,08,51,22.50
2017,04,07,08,52,22.50
2017,04,07,08,53,20.90
2017,04,07,08,54,9.60
2017,04,07,08,55,16.10
2017,04,07,08,56,20.90
2017,04,07,08,57,16.10
2017,04,07,08,58,19.30
2017,04,07,08,59,19.30
2017,04,07,09,00,22.50
2017,04,07,09,01,12.90
2017,04,07,09,02,11.30
2017,04,07,09,03,12.90
2017,04,07,09,04,17.70
2017,04,07,09,05,19.30
2017,04,07,09,06,17.70
2017,04,07,09,07,19.30
2017,04,07,09,08,14.50
2017,04,07,09,09,22.50
2017,04,07,09,10,19.30
2017,04,07,09,11,17.70
2017,04,07,09,12,17.70
2017,04,07,09,13,17.70
2017,04,07,09,14,16.10
2017,04,07,09,15,12.90
2017,04,07,09,16,12.90
2017,04,07,09,17,12.90
2017,04,07,09,18,12.90
2017,04,07,09,19,19.30
2017,04,07,09,20,12.90
2017,04,07,09,21,11.30
2017,04,07,09,22,19.30
2017,04,07,09,23,17.70
2017,04,07,09,24,22.50
2017,04,07,09,25,20.90
2017,04,07,09,26,17.70
2017,04,07,09,27,22.50
2017,04,07,09,28,16.10
2017,04,07,09,29,17.70
2017,04,07,09,30,19.30
2017,04,07,09,31,16.10
2017,04,07,09,32,11.30
2017,04,07,09,33,19.30
2017,04,07,09,34,12.90
2017,04,07,09,35,11.30
2017,04,07,09,36,19.30
2017,04,07,09,37,19.30
2017,04,07,09,38,11.30
2017,04,07,09,39,11.30
2017,04,07,09,40,16.10
2017,04,07,09,41,19.30
2017,04,07,09,42,11.30
2017,04,07,09,43,20.90
2017,04,07,09,44,19.30
2017,04,07,09,45,19.30
2017,04,07,09,46,19.30
2017,04,07,09,47,22.50
2017,04,07,09,48,19.30
2017,04,07,09,49,22.50
2017,04,07,09,50,17.70
2017,04,07,09,51,19.30
2017,04,07,09,52,16.10
2017,04,07,09,53,19.30
2017,04,07,09,54,19.30
2017,04,07,09,55,24.20
2017,04,07,09,56,24.20
2017,04,07,09,57,19.30
2017,04,07,09,58,25.70
2017,04,07,09,59,27.40
2017,04,07,10,00,20.90
2017,04,07,10,01,14.50
2017,04,07,10,02,16.10
2017,04,07,10,03,24.20
2017,04,07,10,04,27.40
2017,04,07,10,05,20.90
2017,04,07,10,06,19.30
2017,04,07,10,07,9.60
2017,04,07,10,08,17.70
2017,04,07,10,09,19.30
2017,04,07,10,10,12.90
2017,04,07,10,11,16.10
2017,04,07,10,12,17.70
2017,04,07,10,13,20.90
2017,04,07,10,14,16.10
2017,04,07,10,15,20.90
2017,04,07,10,16,22.50
2017,04,07,10,17,17.70
2017,04,07,10,18,20.90
2017,04,07,10,19,17.70
2017,04,07,10,20,24.20
2017,04,07,10,21,17.70
2017,04,07,10,22,20.90
2017,04,07,10,23,20.90
2017,04,07,10,24,20.90
2017,04,07,10,25,19.30
2017,04,07,10,26,20.90
2017,04,07,10,27,30.60
2017,04,07,10,28,19.30
2017,04,07,10,29,27.40
2017,04,07,10,30,22.50
2017,04,07,10,31,22.50
2017,04,07,10,32,20.90
2017,04,07,10,33,24.20
2017,04,07,10,34,20.90
2017,04,07,10,35,22.50
2017,04,07,10,36,20.90
2017,04,07,10,37,24.20
2017,04,07,10,38,20.90
2017,04,07,10,39,30.60
2017,04,07,10,40,25.70
2017,04,07,10,41,38.60
2017,04,07,10,42,35.40
2017,04,07,10,43,30.60
2017,04,07,10,44,29.00
2017,04,07,10,45,24.20
2017,04,07,10,46,32.20
2017,04,07,10,47,32.20
2017,04,07,10,48,29.00
2017,04,07,10,49,22.50
2017,04,07,10,50,29.00
2017,04,07,10,51,29.00
2017,04,07,10,52,29.00
2017,04,07,10,53,20.90
2017,04,07,10,54,27.40
2017,04,07,10,55,20.90
2017,04,07,10,56,20.90
2017,04,07,10,57,17.70
2017,04,07,10,58,27.40
2017,04,07,10,59,24.20
2017,04,07,11,00,19.30
2017,04,07,11,01,24.20
2017,04,07,11,02,19.30
2017,04,07,11,03,24.20
2017,04,07,11,04,20.90
2017,04,07,11,05,19.30
2017,04,07,11,06,30.60
2017,04,07,11,07,20.90
2017,04,07,11,08,19.30
2017,04,07,11,09,17.70
2017,04,07,11,10,19.30
2017,04,07,11,11,22.50
2017,04,07,11,12,17.70
2017,04,07,11,13,22.50
2017,04,07,11,14,29.00
2017,04,07,11,15,22.50
2017,04,07,11,16,20.90
2017,04,07,11,17,17.70
2017,04,07,11,18,20.90
2017,04,07,11,19,12.90
2017,04,07,11,20,20.90
2017,04,07,11,21,20.90
2017,04,07,11,22,17.70
2017,04,07,11,23,9.60
2017,04,07,11,24,24.20
2017,04,07,11,25,19.30
2017,04,07,11,26,17.70
2017,04,07,11,27,20.90
2017,04,07,11,28,20.90
2017,04,07,11,29,20.90
2017,04,07,11,30,16.10
2017,04,07,11,31,20.90
2017,04,07,11,32,22.50
2017,04,07,11,33,24.20
2017,04,07,11,34,29.00
2017,04,07,11,35,19.30
2017,04,07,11,36,17.70
2017,04,07,11,37,22.50
2017,04,07,11,38,19.30
2017,04,07,11,39,20.90
2017,04,07,11,40,19.30
2017,04,07,11,41,22.50
2017,04,07,11,42,17.70
2017,04,07,11,43,20.90
2017,04,07,11,44,17.70
2017,04,07,11,45,24.20
2017,04,07,11,46,17.70
2017,04,07,11,47,17.70
2017,04,07,11,48,20.90
2017,04,07,11,49,27.40
2017,04,07,11,50,30.60
2017,04,07,11,51,27.40
2017,04,07,11,52,14.50
2017,04,07,11,53,20.90
2017,04,07,11,54,24.20
2017,04,07,11,55,35.40
2017,04,07,11,56,32.20
2017,04,07,11,57,29.00
2017,04,07,11,58,22.50
2017,04,07,11,59,27.40
2017,04,07,12,00,22.50
2017,04,07,12,01,38.60
2017,04,07,12,02,27.40
2017,04,07,12,03,25.70
2017,04,07,12,04,19.30
2017,04,07,12,05,22.50
2017,04,07,12,06,22.50
2017,04,07,12,07,19.30
2017,04,07,12,08,19.30
2017,04,07,12,09,22.50
2017,04,07,12,10,20.90
2017,04,07,12,11,27.40
2017,04,07,12,12,33.80
2017,04,07,12,13,16.10
2017,04,07,12,14,30.60
2017,04,07,12,15,27.40
2017,04,07,12,16,16.10
2017,04,07,12,17,30.60
2017,04,07,12,18,24.20
2017,04,07,12,19,29.00
2017,04,07,12,20,24.20
2017,04,07,12,21,19.30
2017,04,07,12,22,29.00
2017,04,07,12,23,27.40
2017,04,07,12,24,30.60
2017,04,07,12,25,12.90
2017,04,07,12,26,40.20
2017,04,07,12,27,30.60
2017,04,07,12,28,29.00
2017,04,07,12,29,30.60
2017,04,07,12,30,43.50
2017,04,07,12,31,30.60
2017,04,07,12,32,32.20
2017,04,07,12,33,30.60
2017,04,07,12,34,27.40
2017,04,07,12,35,22.50
2017,04,07,12,36,27.40
2017,04,07,12,37,37.00
2017,04,07,12,38,30.60
2017,04,07,12,39,30.60
2017,04,07,12,40,30.60
2017,04,07,12,41,27.40
2017,04,07,12,42,29.00
2017,04,07,12,43,32.20
2017,04,07,12,44,29.00
2017,04,07,12,45,24.20
2017,04,07,12,46,30.60
2017,04,07,12,47,29.00
2017,04,07,12,48,38.60
2017,04,07,12,49,30.60
2017,04,07,12,50,29.00
2017,04,07,12,51,22.50
2017,04,07,12,52,35.40
2017,04,07,12,53,43.50
2017,04,07,12,54,30.60
2017,04,07,12,55,30.60
2017,04,07,12,56,29.00
2017,04,07,12,57,32.20
2017,04,07,12,58,35.40
2017,04,07,12,59,37.00
2017,04,07,13,00,32.20
2017,04,07,13,01,35.40
2017,04,07,13,02,29.00
2017,04,07,13,03,40.20
2017,04,07,13,04,32.20
2017,04,07,13,05,45.10
2017,04,07,13,06,27.40
2017,04,07,13,07,35.40
2017,04,07,13,08,30.60
2017,04,07,13,09,35.40
2017,04,07,13,10,29.00
2017,04,07,13,11,22.50
2017,04,07,13,12,29.00
2017,04,07,13,13,33.80
2017,04,07,13,14,35.40
2017,04,07,13,15,38.60
2017,04,07,13,16,40.20
2017,04,07,13,17,30.60
2017,04,07,13,18,29.00
2017,04,07,13,19,25.70
2017,04,07,13,20,38.60
2017,04,07,13,21,37.00
2017,04,07,13,22,37.00
2017,04,07,13,23,37.00
2017,04,07,13,24,40.20
2017,04,07,13,25,33.80
2017,04,07,13,26,30.60
2017,04,07,13,27,32.20
2017,04,07,13,28,35.40
2017,04,07,13,29,30.60
2017,04,07,13,30,35.40
2017,04,07,13,31,27.40
2017,04,07,13,32,38.60
2017,04,07,13,33,48.30
2017,04,07,13,34,40.20
2017,04,07,13,35,27.40
2017,04,07,13,36,45.10
2017,04,07,13,37,40.20
2017,04,07,13,38,33.80
2017,04,07,13,39,45.10
2017,04,07,13,40,49.90
2017,04,07,13,41,30.60
2017,04,07,13,42,38.60
2017,04,07,13,43,51.50
2017,04,07,13,44,53.10
2017,04,07,13,45,43.50
2017,04,07,13,46,48.30
2017,04,07,13,47,53.10
2017,04,07,13,48,38.60
2017,04,07,13,49,54.70
2017,04,07,13,50,49.90
2017,04,07,13,51,46.70
2017,04,07,13,52,41.80
2017,04,07,13,53,49.90
2017,04,07,13,54,51.50
2017,04,07,13,55,53.10
2017,04,07,13,56,49.90
2017,04,07,13,57,41.80
2017,04,07,13,58,35.40
2017,04,07,13,59,49.90
2017,04,07,14,00,46.70
2017,04,07,14,01,53.10
2017,04,07,14,02,37.00
2017,04,07,14,03,38.60
2017,04,07,14,04,51.50
2017,04,07,14,05,46.70
2017,04,07,14,06,46.70
2017,04,07,14,07,53.10
2017,04,07,14,08,49.90
2017,04,07,14,09,57.90
2017,04,07,14,10,64.40
2017,04,07,14,11,54.70
2017,04,07,14,12,49.90
2017,04,07,14,13,61.20
2017,04,07,14,14,48.30
2017,04,07,14,15,53.10
2017,04,07,14,16,51.50
2017,04,07,14,17,62.70
2017,04,07,14,18,40.20
2017,04,07,14,19,38.60
2017,04,07,14,20,43.50
2017,04,07,14,21,43.50
2017,04,07,14,22,40.20
2017,04,07,14,23,46.70
2017,04,07,14,24,51.50
2017,04,07,14,25,51.50
2017,04,07,14,26,49.90
2017,04,07,14,27,48.30
2017,04,07,14,28,61.20
2017,04,07,14,29,62.70
2017,04,07,14,30,51.50
2017,04,07,14,31,53.10
2017,04,07,14,32,46.70
2017,04,07,14,33,48.30
2017,04,07,14,34,45.10
2017,04,07,14,35,51.50
2017,04,07,14,36,62.70
2017,04,07,14,37,49.90
2017,04,07,14,38,48.30
2017,04,07,14,39,35.40
2017,04,07,14,40,45.10
2017,04,07,14,41,45.10
2017,04,07,14,42,51.50
2017,04,07,14,43,59.50
2017,04,07,14,44,38.60
2017,04,07,14,45,33.80
2017,04,07,14,46,32.20
2017,04,07,14,47,37.00
2017,04,07,14,48,40.20
2017,04,07,14,49,41.80
2017,04,07,14,50,41.80
2017,04,07,14,51,38.60
2017,04,07,14,52,38.60
2017,04,07,14,53,49.90
2017,04,07,14,54,43.50
2017,04,07,14,55,56.30
2017,04,07,14,56,48.30
2017,04,07,14,57,51.50
2017,04,07,14,58,49.90
2017,04,07,14,59,40.20
2017,04,07,15,00,37.00
2017,04,07,15,01,45.10
2017,04,07,15,02,48.30
2017,04,07,15,03,40.20
2017,04,07,15,04,49.90
2017,04,07,15,05,49.90
2017,04,07,15,06,41.80
2017,04,07,15,07,37.00
2017,04,07,15,08,46.70
2017,04,07,15,09,53.10
2017,04,07,15,10,43.50
2017,04,07,15,11,32.20
2017,04,07,15,12,37.00
2017,04,07,15,13,40.20
2017,04,07,15,14,35.40
2017,04,07,15,15,43.50
2017,04,07,15,16,40.20
2017,04,07,15,17,35.40
2017,04,07,15,18,40.20
2017,04,07,15,19,46.70
2017,04,07,15,20,48.30
2017,04,07,15,21,37.00
2017,04,07,15,22,37.00
2017,04,07,15,23,45.10
2017,04,07,15,24,48.30
2017,04,07,15,25,30.60
2017,04,07,15,26,25.70
2017,04,07,15,27,27.40
2017,04,07,15,28,37.00
2017,04,07,15,29,35.40
2017,04,07,15,30,38.60
2017,04,07,15,31,38.60
2017,04,07,15,32,30.60
2017,04,07,15,33,22.50
2017,04,07,15,34,48.30
2017,04,07,15,35,56.30
2017,04,07,15,36,43.50
2017,04,07,15,37,43.50
2017,04,07,15,38,38.60
2017,04,07,15,39,40.20
2017,04,07,15,40,48.30
2017,04,07,15,41,48.30
2017,04,07,15,42,57.90
2017,04,07,15,43,53.10
2017,04,07,15,44,45.10
2017,04,07,15,45,45.10
2017,04,07,15,46,35.40
2017,04,07,15,47,38.60
2017,04,07,15,48,40.20
2017,04,07,15,49,38.60
2017,04,07,15,50,41.80
2017,04,07,15,51,41.80
2017,04,07,15,52,45.10
2017,04,07,15,53,43.50
2017,04,07,15,54,29.00
2017,04,07,15,55,45.10
2017,04,07,15,56,32.20
2017,04,07,15,57,46.70
2017,04,07,15,58,32.20
2017,04,07,15,59,35.40
2017,04,07,16,00,49.90
2017,04,07,16,01,35.40
2017,04,07,16,02,35.40
2017,04,07,16,03,41.80
2017,04,07,16,04,33.80
2017,04,07,16,05,46.70
2017,04,07,16,06,45.10
2017,04,07,16,07,46.70
2017,04,07,16,08,43.50
2017,04,07,16,09,43.50
2017,04,07,16,10,49.90
2017,04,07,16,11,46.70
2017,04,07,16,12,48.30
2017,04,07,16,13,35.40
2017,04,07,16,14,51.50
2017,04,07,16,15,46.70
2017,04,07,16,16,37.00
2017,04,07,16,17,32.20
2017,04,07,16,18,41.80
2017,04,07,16,19,45.10
2017,04,07,16,20,40.20
2017,04,07,16,21,41.80
2017,04,07,16,22,38.60
2017,04,07,16,23,46.70
2017,04,07,16,24,45.10
2017,04,07,16,25,40.20
2017,04,07,16,26,49.90
2017,04,07,16,27,41.80
2017,04,07,16,28,43.50
2017,04,07,16,29,37.00
2017,04,07,16,30,46.70
2017,04,07,16,31,33.80
2017,04,07,16,32,46.70
2017,04,07,16,33,45.10
2017,04,07,16,34,49.90
2017,04,07,16,35,56.30
2017,04,07,16,36,45.10
2017,04,07,16,37,35.40
2017,04,07,16,38,51.50
2017,04,07,16,39,35.40
2017,04,07,16,40,35.40
2017,04,07,16,41,37.00
2017,04,07,16,42,35.40
2017,04,07,16,43,41.80
2017,04,07,16,44,49.90
2017,04,07,16,45,49.90
2017,04,07,16,46,40.20
2017,04,07,16,47,54.70
2017,04,07,16,48,45.10
2017,04,07,16,49,40.20
2017,04,07,16,50,35.40
2017,04,07,16,51,40.20
2017,04,07,16,52,49.90
2017,04,07,16,53,43.50
2017,04,07,16,54,40.20
2017,04,07,16,55,40.20
2017,04,07,16,56,46.70
2017,04,07,16,57,37.00
2017,04,07,16,58,49.90
2017,04,07,16,59,49.90
2017,04,07,17,00,40.20
2017,04,07,17,01,46.70
2017,04,07,17,02,46.70
2017,04,07,17,03,51.50
2017,04,07,17,04,45.10
2017,04,07,17,05,46.70
2017,04,07,17,06,46.70
2017,04,07,17,07,48.30
2017,04,07,17,08,35.40
2017,04,07,17,09,51.50
2017,04,07,17,10,40.20
2017,04,07,17,11,32.20
2017,04,07,17,12,53.10
2017,04,07,17,13,45.10
2017,04,07,17,14,43.50
2017,04,07,17,15,35.40
2017,04,07,17,16,37.00
2017,04,07,17,17,37.00
2017,04,07,17,18,43.50
2017,04,07,17,19,38.60
2017,04,07,17,20,43.50
2017,04,07,17,21,35.40
2017,04,07,17,22,37.00
2017,04,07,17,23,40.20
2017,04,07,17,24,32.20